Weather History for KTAZ - January, 2013

Change the Weather History Date:

Sunday, January 20, 2013

  Actual Average (KSPI) Record (KSPI)
Temperature  
Mean Temperature 28 °F 26 °F  
Max Temperature 37 °F 35 °F 71 °F (1906)
Min Temperature 19 °F 18 °F -21 °F (1985)
Degree Days  
Heating Degree Days 37 38  
Month to date heating degree days 767  
Since 1 July heating degree days 2907  
Cooling Degree Days 0 0  
Month to date cooling degree days 0  
Year to date cooling degree days 0  
Moisture  
Dew Point 13 °F    
Average Humidity 65    
Maximum Humidity 86    
Minimum Humidity 50    
Precipitation  
Precipitation 0.00 in 0.05 in 1.55 in (1898)
Month to date precipitation 1.22  
Year to date precipitation 1.22  
Snow  
Snow 0.00 in 0.20 in 5.60 in (1922)
Month to date snowfall 4.1  
Since 1 July snowfall 10.3  
Snow Depth -    
Sea Level Pressure  
Sea Level Pressure 30.27 in    
Wind  
Wind Speed 12 mph (NW)    
Max Wind Speed 23 mph    
Max Gust Speed 29 mph    
Visibility 10 miles    
Events      
T = Trace of Precipitation, MM = Missing Value Source: NWS Daily Summary

Daily Weather History Graph

Daily Weather History Graph

Search for Another Location

Airport or City:

Trip Planner

Search our weather history database for the weather conditions in past years. The results will help you decide how hot, cold, wet, or windy it might be!

Date:

Astronomy

Jan. 20, 2013 Rise Set
Actual Time 7:13 AM CST 5:03 PM CST
Civil Twilight 6:44 AM CST 5:32 PM CST
Nautical Twilight 6:11 AM CST 6:05 PM CST
Astronomical Twilight 5:39 AM CST 6:37 PM CST
Moon 12:04 PM CST (1/20) 1:45 AM CST (1/20)
Length of Visible Light 10h 48m
Length of Day
9h 50m
Waxing Gibbous, 66% of the Moon is Illuminated
Jan 20
Waxing Gibbous
Jan 26
Full
Feb 3
Last Quarter
Feb 10
New
Feb 17
First Quarter

Hourly Weather History & Observations

Time (CST) Temp. Windchill Dew Point Humidity Pressure Visibility Wind Dir Wind Speed Gust Speed Precip Events Conditions
12:15 AM 37.4 °F 28.9 °F 28.4 °F 70% 30.08 in 10.0 mi WNW 13.8 mph - N/A   Clear
12:35 AM 37.4 °F 29.3 °F 28.4 °F 70% 30.09 in 10.0 mi WNW 12.7 mph 17.3 mph N/A   Clear
12:55 AM 35.6 °F 27.5 °F 28.4 °F 75% 30.10 in 10.0 mi West 11.5 mph - N/A   Clear
1:15 AM 35.6 °F 27.5 °F 28.4 °F 75% 30.11 in 10.0 mi West 11.5 mph 19.6 mph N/A   Clear
1:35 AM 35.6 °F 27.1 °F 26.6 °F 70% 30.12 in 10.0 mi NW 12.7 mph 19.6 mph N/A   Clear
1:55 AM 32.0 °F 19.2 °F 26.6 °F 80% 30.15 in 10.0 mi NNW 23.0 mph 28.8 mph N/A   Clear
2:15 AM 30.2 °F 17.8 °F 24.8 °F 80% 30.17 in 10.0 mi NNW 19.6 mph 28.8 mph N/A   Clear
2:35 AM 28.4 °F 15.8 °F 24.8 °F 86% 30.18 in 10.0 mi NNW 18.4 mph - N/A   Clear
2:55 AM 28.4 °F 15.4 °F 21.2 °F 74% 30.19 in 10.0 mi NW 19.6 mph - N/A   Clear
3:15 AM 28.4 °F 16.6 °F 19.4 °F 69% 30.20 in 10.0 mi NW 16.1 mph 20.7 mph N/A   Clear
3:35 AM 26.6 °F 13.8 °F 15.8 °F 64% 30.21 in 10.0 mi NW 17.3 mph 24.2 mph N/A   Clear
3:55 AM 26.6 °F 16.2 °F 12.2 °F 55% 30.22 in 10.0 mi NW 11.5 mph 15.0 mph N/A   Clear
4:15 AM 24.8 °F 13.4 °F 12.2 °F 59% 30.23 in 10.0 mi WNW 12.7 mph 18.4 mph N/A   Clear
4:35 AM 24.8 °F 11.1 °F 10.4 °F 54% 30.23 in 10.0 mi NW 18.4 mph 24.2 mph N/A   Clear
4:55 AM 24.8 °F 14.0 °F 10.4 °F 54% 30.25 in 10.0 mi NW 11.5 mph - N/A   Clear
5:15 AM 23.0 °F 13.9 °F 10.4 °F 59% 30.25 in 10.0 mi NW 8.1 mph - N/A   Clear
5:35 AM 23.0 °F 12.4 °F 12.2 °F 63% 30.25 in 10.0 mi NW 10.4 mph - N/A   Clear
5:55 AM 23.0 °F 11.7 °F 12.2 °F 63% 30.27 in 10.0 mi NNW 11.5 mph - N/A   Clear
6:15 AM 21.2 °F 8.9 °F 12.2 °F 68% 30.27 in 10.0 mi NNW 12.7 mph - N/A   Clear
6:35 AM 21.2 °F 8.9 °F 10.4 °F 63% 30.28 in 10.0 mi NNW 12.7 mph - N/A   Clear
6:55 AM 21.2 °F 10.9 °F 10.4 °F 63% 30.29 in 10.0 mi NW 9.2 mph 17.3 mph N/A   Clear
7:15 AM 21.2 °F 8.9 °F 10.4 °F 63% 30.29 in 10.0 mi NNW 12.7 mph - N/A   Clear
7:35 AM 19.4 °F 6.6 °F 8.6 °F 63% 30.30 in 10.0 mi NNW 12.7 mph - N/A   Clear
7:55 AM 19.4 °F 7.9 °F 10.4 °F 68% 30.31 in 10.0 mi North 10.4 mph - N/A   Clear
8:15 AM 19.4 °F 8.6 °F 10.4 °F 68% 30.32 in 10.0 mi NNW 9.2 mph - N/A   Clear
8:35 AM 19.4 °F 8.6 °F 10.4 °F 68% 30.32 in 10.0 mi North 9.2 mph - N/A   Clear
8:55 AM 19.4 °F 9.5 °F 10.4 °F 68% 30.32 in 10.0 mi North 8.1 mph - N/A   Clear
9:15 AM 19.4 °F 10.4 °F 10.4 °F 68% 30.32 in 10.0 mi North 6.9 mph - N/A   Clear
9:35 AM 21.2 °F 12.6 °F 10.4 °F 63% 30.33 in 10.0 mi NW 6.9 mph - N/A   Clear
9:55 AM 21.2 °F 11.7 °F 10.4 °F 63% 30.33 in 10.0 mi NNW 8.1 mph - N/A   Clear
10:15 AM 21.2 °F 12.6 °F 10.4 °F 63% 30.34 in 10.0 mi NNW 6.9 mph - N/A   Clear
10:35 AM 21.2 °F 11.7 °F 10.4 °F 63% 30.34 in 10.0 mi North 8.1 mph - N/A   Clear
10:55 AM 21.2 °F 12.6 °F 10.4 °F 63% 30.32 in 10.0 mi North 6.9 mph - N/A   Clear
11:15 AM 23.0 °F 14.7 °F 10.4 °F 59% 30.32 in 10.0 mi North 6.9 mph - N/A   Clear
11:35 AM 23.0 °F 15.8 °F 10.4 °F 59% 30.31 in 10.0 mi WNW 5.8 mph - N/A   Clear
11:55 AM 23.0 °F 14.7 °F 10.4 °F 59% 30.30 in 10.0 mi NNW 6.9 mph - N/A   Clear
12:15 PM 24.8 °F 17.9 °F 10.4 °F 54% 30.29 in 10.0 mi NNW 5.8 mph - N/A   Clear
12:35 PM 24.8 °F 20.5 °F 10.4 °F 54% 30.29 in 10.0 mi NNW 3.5 mph - N/A   Clear
12:55 PM 24.8 °F 19.1 °F 8.6 °F 50% 30.28 in 10.0 mi NW 4.6 mph - N/A   Clear
1:15 PM 26.6 °F 19.1 °F 10.4 °F 51% 30.29 in 10.0 mi WNW 6.9 mph - N/A   Scattered Clouds
1:35 PM 24.8 °F 16.1 °F 10.4 °F 54% 30.29 in 10.0 mi NNW 8.1 mph - N/A   Mostly Cloudy
1:55 PM 24.8 °F 14.6 °F 10.4 °F 54% 30.28 in 10.0 mi NW 10.4 mph - N/A   Scattered Clouds
2:15 PM 24.8 °F 14.6 °F 10.4 °F 54% 30.29 in 10.0 mi NNW 10.4 mph - N/A   Clear
2:35 PM 26.6 °F 18.2 °F 12.2 °F 55% 30.29 in 10.0 mi NW 8.1 mph - N/A   Scattered Clouds
2:55 PM 24.8 °F 15.3 °F 12.2 °F 59% 30.30 in 10.0 mi West 9.2 mph - N/A   Mostly Cloudy
3:15 PM 24.8 °F 16.1 °F 12.2 °F 59% 30.29 in 10.0 mi NW 8.1 mph - N/A   Overcast
3:35 PM 24.8 °F 15.3 °F 12.2 °F 59% 30.29 in 10.0 mi NW 9.2 mph - N/A   Overcast
3:55 PM 24.8 °F 14.6 °F 10.4 °F 54% 30.29 in 10.0 mi NNW 10.4 mph - N/A   Overcast
4:15 PM 24.8 °F 16.1 °F 10.4 °F 54% 30.29 in 10.0 mi North 8.1 mph - N/A   Mostly Cloudy
4:35 PM 24.8 °F 16.1 °F 10.4 °F 54% 30.29 in 10.0 mi NNW 8.1 mph - N/A   Mostly Cloudy
4:55 PM 24.8 °F 16.1 °F 10.4 °F 54% 30.29 in 10.0 mi North 8.1 mph - N/A   Overcast
5:15 PM 23.0 °F 13.9 °F 10.4 °F 59% 30.28 in 10.0 mi North 8.1 mph - N/A   Mostly Cloudy
5:35 PM 23.0 °F 13.9 °F 10.4 °F 59% 30.30 in 10.0 mi NNW 8.1 mph - N/A   Overcast
5:55 PM 23.0 °F 14.7 °F 10.4 °F 59% 30.29 in 10.0 mi NW 6.9 mph - N/A   Overcast
6:15 PM 23.0 °F 14.7 °F 10.4 °F 59% 30.29 in 10.0 mi NNW 6.9 mph - N/A   Overcast
6:35 PM 23.0 °F 13.1 °F 10.4 °F 59% 30.29 in 10.0 mi North 9.2 mph - N/A   Overcast
6:55 PM 21.2 °F 10.1 °F 12.2 °F 68% 30.29 in 10.0 mi NNW 10.4 mph - N/A   Overcast
7:15 PM 21.2 °F 10.9 °F 12.2 °F 68% 30.29 in 10.0 mi North 9.2 mph - N/A   Overcast
7:35 PM 21.2 °F 10.1 °F 12.2 °F 68% 30.29 in 10.0 mi NNW 10.4 mph - N/A   Overcast
7:55 PM 21.2 °F 10.1 °F 12.2 °F 68% 30.29 in 10.0 mi NW 10.4 mph - N/A   Overcast
8:15 PM 21.2 °F 10.9 °F 14.0 °F 74% 30.28 in 10.0 mi NW 9.2 mph - N/A   Overcast
8:35 PM 21.2 °F 9.5 °F 12.2 °F 68% 30.28 in 10.0 mi NNW 11.5 mph - N/A   Overcast
8:55 PM 19.4 °F 7.2 °F 12.2 °F 74% 30.28 in 10.0 mi NNW 11.5 mph - N/A   Overcast
9:15 PM 19.4 °F 7.9 °F 12.2 °F 74% 30.27 in 10.0 mi NNW 10.4 mph - N/A   Overcast
9:35 PM 19.4 °F 8.6 °F 12.2 °F 74% 30.28 in 10.0 mi NW 9.2 mph - N/A   Overcast
9:55 PM 19.4 °F 9.5 °F 12.2 °F 74% 30.29 in 10.0 mi NNW 8.1 mph - N/A   Overcast
10:15 PM 19.4 °F 11.5 °F 12.2 °F 74% 30.28 in 10.0 mi NW 5.8 mph - N/A   Overcast
10:35 PM 19.4 °F 10.4 °F 12.2 °F 74% 30.28 in 10.0 mi NW 6.9 mph - N/A   Overcast
10:55 PM 19.4 °F 8.6 °F 12.2 °F 74% 30.27 in 10.0 mi NW 9.2 mph - N/A   Overcast
11:15 PM 19.4 °F 8.6 °F 12.2 °F 74% 30.27 in 10.0 mi NW 9.2 mph - N/A   Overcast
11:35 PM 19.4 °F 8.6 °F 14.0 °F 80% 30.27 in 10.0 mi WNW 9.2 mph - N/A   Overcast
11:55 PM 19.4 °F 7.9 °F 14.0 °F 80% 30.26 in 10.0 mi WNW 10.4 mph - N/A   Overcast